Back to catalog

METEOR 2-20 DEB

AlivePO
NORAD 44699·DEBRIS·🇷🇺 Russia

Launched Sep 28, 1990 from Plesetsk Cosmodrome

Loading…

Next Passes (next 24 hours)

TLE

AgingSource: Space-Track

Epoch: Sep 6, 2026, 07:21 UTC

1 44699U 90086D   26249.30665599  .00000425  00000-0  28634-3 0  9998
2 44699  82.5154  92.7261 0016487  88.3205 271.9851 13.98433521648930

Track METEOR 2-20 DEB in real time with AllMySat

Download on the App Store